"Time","Temp","Dewpoint","Humidity","Pressure","Direction","Speed","Gust","Precip","PrecipRate"
"00:04:59","51.1","50.6","98","29.94","151","2.4","7","0.01","0.01"
"00:09:58","51.3","50.8","98","29.94","174","3.2","7","0.01","0.01"
"00:14:59","51.3","50.8","98","29.94","194","2.6","6","0.01","0.01"
"00:19:59","51.4","50.9","98","29.93","159","2.7","6","0.01","0.01"
"00:24:59","51.4","50.9","98","29.93","173","1.9","4","0.01","0.01"
"00:29:59","51.4","50.9","98","29.93","151","1.5","4","0.01","0.01"
"00:34:59","51.5","51","98","29.93","173","0.5","2.3","0.01","0.01"
"00:39:59","51.5","51","98","29.93","173","1.3","4","0.01","0.01"
"00:44:59","51.6","51.1","98","29.93","160","2.1","6","0.01","0.01"
"00:49:59","51.8","51.3","98","29.91","145","2","5","0.01","0.01"
"00:54:59","51.9","51.4","98","29.91","158","2.7","7","0.01","0.01"
"00:59:56","52.1","51.6","98","29.91","168","2.3","6","0.01","0.01"
"01:04:57","52.3","51.8","98.1","29.90","202","2.1","5","0.01","0.01"
"01:09:59","52.4","52","98.5","29.90","202","2.2","6","0.01","0.00"
"01:14:56","52.8","52.4","98.8","29.90","174","2.5","5","0.01","0.00"
"01:19:56","53.3","53","99","29.89","187","3.6","10.4","0.01","0.00"
"01:24:59","53.9","53.6","99","29.89","193","3.3","9.2","0.01","0.00"
"01:29:59","54.3","54","99","29.89","180","3.2","6.9","0.01","0.00"
"01:34:59","54.6","54.3","99","29.88","165","3.9","13","0.01","0.00"
"01:39:59","54.8","54.5","99","29.88","193","3.8","9.2","0.01","0.00"
"01:44:59","55","54.7","99","29.88","202","4","9.2","0.01","0.00"
"01:49:59","55.2","54.9","99","29.87","199","5.2","14","0.01","0.00"
"01:54:58","55.4","55.1","99","29.87","187","3.9","12.7","0.01","0.00"
"01:59:58","55.6","55.3","99","29.87","194","5.1","11.5","0.01","0.00"
"02:04:56","55.9","55.4","98.3","29.86","214","5.4","14","0.01","0.00"
"02:09:58","56.2","55.6","98","29.86","206","4.9","12","0.01","0.00"
"02:14:58","56.4","55.8","98","29.86","197","3.9","9","0.01","0.00"
"02:19:58","56.7","56","97.4","29.85","201","4.6","11","0.01","0.00"
"02:24:58","56.9","56.1","97","29.85","202","4.2","11.5","0.01","0.00"
"02:29:58","57.1","56.3","97","29.86","203","5","11","0.01","0.00"
"02:34:58","57.3","56.5","97","29.86","204","4.6","12","0.01","0.00"
"02:39:58","57.6","56.7","96.9","29.86","202","4.4","9","0.01","0.00"
"02:44:58","57.8","56.7","96","29.86","211","7","18.4","0.01","0.00"
"02:49:58","58.2","57.1","96","29.85","191","4","10","0.01","0.00"
"02:54:58","58.3","57.2","96","29.85","198","5.3","10.4","0.01","0.00"
"02:59:59","58.6","57.4","95.6","29.85","199","5.5","14","0.01","0.00"
"03:04:58","58.8","57.4","95","29.84","196","7.7","16.1","0.01","0.00"
"03:09:59","59.2","57.6","94.3","29.84","207","8.2","17.3","0.01","0.00"
"03:14:56","59.5","57.8","94","29.84","206","7.2","17.3","0.01","0.00"
"03:19:59","59.7","57.9","93.9","29.84","203","6.6","13.8","0.01","0.00"
"03:24:59","59.9","57.9","93","29.84","202","8.2","14","0.01","0.00"
"03:29:59","60","58","93","29.84","211","7.7","18","0.01","0.00"
"03:34:59","60.2","58","92.5","29.83","204","6.3","13","0.01","0.00"
"03:39:59","60.1","58.1","92.9","29.83","210","5.5","10.4","0.01","0.00"
"03:44:59","60.1","58.1","93","29.83","219","5.5","10.4","0.01","0.00"
"03:49:59","60","58","93.1","29.83","226","6.3","13","0.01","0.00"
"03:54:59","59.9","58.2","94","29.83","206","7.2","14","0.01","0.00"
"03:59:59","59.7","58","94","29.83","197","5.2","13","0.01","0.00"
"04:04:57","59.6","58.1","94.9","29.83","194","4.5","11.5","0.01","0.00"
"04:09:59","59.3","57.9","95","29.83","187","3.9","7","0.01","0.00"
"04:14:59","59.2","57.8","95","29.83","190","3.9","10.4","0.01","0.00"
"04:19:59","59.1","58","96","29.82","184","4.8","10.4","0.01","0.00"
"04:24:59","59.1","58","96","29.82","187","6","13","0.01","0.00"
"04:29:59","59.1","58","96","29.82","181","4.6","11.5","0.01","0.00"
"04:34:58","59","57.9","96","29.82","183","3.8","11.5","0.01","0.00"
"04:39:58","59","57.9","96","29.82","191","5.4","11.5","0.01","0.00"
"04:44:58","59","57.9","96","29.82","193","5.3","16.1","0.01","0.00"
"04:49:58","59","57.9","96","29.81","195","7.2","15","0.01","0.00"
"04:54:58","59","57.9","96","29.81","202","6.6","18","0.01","0.00"
"04:59:58","59","57.9","96","29.81","193","5.6","12.7","0.01","0.00"
"05:04:56","59","57.8","95.7","29.81","187","4.5","11.5","0.01","0.00"
"05:09:59","59","57.9","95.9","29.81","210","5.7","14","0.01","0.00"
"05:14:56","59","57.8","95.8","29.81","204","4.7","14","0.01","0.00"
"05:19:56","59","57.7","95.2","29.81","202","6","13.8","0.01","0.00"
"05:24:56","59","57.6","95","29.81","208","7.8","14","0.01","0.00"
"05:29:56","59.2","57.8","95","29.83","197","8.3","19.6","0.01","0.00"
"05:34:59","59.3","57.9","95","29.83","201","7.3","12","0.01","0.00"
"05:39:59","59.3","57.6","94","29.83","208","6.7","14","0.01","0.00"
"05:44:59","59.3","57.6","94","29.83","195","6","13","0.01","0.00"
"05:49:59","59.3","57.6","94","29.83","208","7.1","18.4","0.01","0.00"
"05:54:59","59.3","57.6","94","29.83","207","7.7","16","0.01","0.00"
"05:59:59","59.3","57.6","94","29.84","196","6","16.1","0.01","0.00"
"06:04:57","59.3","57.6","94","29.84","211","6.2","16.1","0.01","0.00"
"06:09:56","59.4","57.7","94","29.84","215","5.5","11.5","0.01","0.00"
"06:14:56","59.3","57.5","93.7","29.86","256","5.8","13","0.01","0.00"
"06:19:56","58.3","54.7","88.1","29.86","315","7.7","15","0.02","0.01"
"06:24:56","55.4","50.8","84.5","29.86","299","4.1","11.5","0.02","0.01"
"06:29:56","53","49.2","86.9","29.88","265","1.9","4.6","0.03","0.01"
"06:34:56","51.4","48","88.2","29.88","301","1.9","5","0.04","0.03"
"06:39:56","50.2","47.3","89.8","29.88","290","1.5","4","0.05","0.03"
"06:44:56","49.4","46.9","91.1","29.89","289","0.5","3.5","0.06","0.05"
"06:49:56","48.7","46.5","92","29.89","306","2.4","7","0.07","0.06"
"06:54:57","48.1","45.9","92.2","29.89","319","3.2","7","0.08","0.07"
"06:59:57","47.6","45.7","93","29.90","329","3.9","11","0.09","0.07"
"07:04:59","47.1","45.2","93","29.90","313","4.1","9.2","0.09","0.08"
"07:09:57","46.7","44.9","93.3","29.90","331","3.6","8.1","0.10","0.09"
"07:14:57","46.3","44.7","94","29.90","310","3.9","8.1","0.12","0.10"
"07:19:57","46","44.4","94","29.90","308","4.2","12","0.12","0.11"
"07:24:58","45.7","44.1","94","29.90","306","4.1","12","0.14","0.11"
"07:29:58","45.3","43.7","94","29.91","328","4.6","13","0.14","0.12"
"07:34:58","45","43.4","94","29.91","334","5","12.7","0.15","0.11"
"07:39:59","44.7","43.1","94","29.91","331","3.5","9.2","0.15","0.11"
"07:44:59","44.5","42.9","94","29.92","322","4.3","11.5","0.16","0.10"
"07:49:59","44.2","42.6","94","29.92","338","5.1","12","0.16","0.10"
"07:54:59","43.9","42.3","94","29.92","308","3.8","10.4","0.16","0.09"
"07:59:59","43.6","42","94","29.93","332","4.5","11.5","0.17","0.09"
"08:04:57","43.3","41.7","94","29.93","324","5.1","14","0.18","0.09"
"08:09:59","43","41.4","94","29.93","322","6.6","13","0.18","0.09"
"08:14:58","42.7","41.1","94","29.94","335","5.4","13","0.19","0.08"
"08:19:58","42.5","40.9","94","29.94","341","5.9","11.5","0.20","0.07"
"08:24:58","42.4","40.8","94","29.94","338","3.9","10","0.20","0.08"
"08:29:58","42.3","40.7","94","29.94","317","3.9","8.1","0.21","0.06"
"08:34:58","42.2","40.7","94.2","29.94","334","5","13","0.21","0.07"
"08:39:58","42.1","40.5","94","29.94","338","2.8","10","0.22","0.07"
"08:44:58","42","40.4","94","29.95","334","3.5","11.5","0.22","0.07"
"08:49:58","41.7","40.1","94","29.95","344","3.8","10.4","0.23","0.07"
"08:54:58","41.5","39.9","94","29.95","350","3","12","0.24","0.08"
"08:59:58","41.3","39.7","94","29.96","335","3.6","12","0.24","0.08"
"09:04:56","41.1","39.5","94","29.96","331","3.8","10.4","0.25","0.07"
"09:09:57","41","39.4","94","29.96","342","3.6","12","0.25","0.07"
"09:14:58","40.9","39.3","94","29.96","338","2.7","11.5","0.25","0.07"
"09:19:57","40.8","39.2","94","29.94","340","3.9","7","0.25","0.06"
"09:24:57","40.7","39.1","94","29.94","349","3.2","9","0.26","0.06"
"09:29:57","40.5","38.9","94","29.96","329","3.7","9.2","0.26","0.06"
"09:34:57","40.5","38.9","94.1","29.96","351","4.3","11.5","0.26","0.05"
"09:39:57","40.4","38.8","94","29.96","346","2.5","7","0.26","0.05"
"09:44:57","40.3","38.8","94.1","29.96","334","1.9","5","0.26","0.04"
"09:49:56","40.3","38.9","94.6","29.93","341","2.5","10.4","0.27","0.05"
"09:54:56","40.2","38.6","94","29.93","344","2.9","10.4","0.27","0.04"
"09:59:56","40.2","38.6","94","29.94","342","3.1","6.9","0.27","0.03"
"10:04:59","40.2","38.7","94.5","29.94","334","2.8","6","0.27","0.03"
"10:09:56","40.2","38.9","95","29.94","333","2.9","10.4","0.27","0.02"
"10:14:57","40.2","38.9","95","29.94","343","3","10.4","0.27","0.02"
"10:19:56","40.2","38.9","95","29.94","41","1","3.5","0.27","0.02"
"10:24:56","40.2","38.9","95","29.94","337","4.2","12","0.27","0.02"
"10:29:56","40.2","38.9","95","29.96","330","3.7","11.5","0.27","0.01"
"10:34:55","40.2","38.9","95","29.96","330","2.3","10.4","0.27","0.01"
"10:39:56","40.1","38.8","94.7","29.96","335","2.9","9.2","0.28","0.02"
"10:44:55","40","38.4","94","29.96","18","2.4","8.1","0.28","0.02"
"10:49:59","39.9","38.3","94","29.92","330","5.3","12","0.28","0.02"
"10:54:59","39.8","38.2","94","29.92","344","4.2","13","0.28","0.01"
"10:59:58","39.7","38.1","94","29.97","333","4.4","19","0.29","0.02"
"11:04:56","39.6","37.8","93.3","29.97","348","6.1","19.6","0.29","0.02"
"11:09:58","39.4","37.4","92.3","29.97","329","6.3","14","0.29","0.02"
"11:14:58","39.3","37.2","92","29.97","344","4.7","12","0.29","0.02"
"11:19:57","39.2","37.1","92","29.97","330","7.2","14","0.29","0.02"
"11:24:57","39.1","37","92","29.97","319","4.9","11.5","0.29","0.02"
"11:29:57","39.1","37.1","92.6","29.97","335","4.7","12.7","0.29","0.02"
"11:34:57","39.1","37.2","93","29.96","329","3.7","7","0.30","0.03"
"11:39:56","39","37.4","93.8","29.96","336","3.9","10","0.31","0.04"
"11:44:56","39","37.4","94","29.96","336","6.7","18.4","0.32","0.04"
"11:49:59","38.8","37.2","93.9","29.95","337","6.5","14","0.32","0.04"
"11:54:59","38.8","37.2","94","29.95","342","6.8","16.1","0.32","0.04"
"11:59:59","38.8","37.1","93.8","29.95","340","8.9","19","0.32","0.04"
"12:04:57","38.7","37","93.6","29.94","345","6.5","18.4","0.32","0.03"
"12:09:58","38.7","36.9","93.3","29.94","349","7.7","19.6","0.32","0.03"
"12:14:58","38.6","36.9","93.3","29.95","337","5.9","13","0.32","0.03"
"12:19:58","38.6","36.8","93.1","29.95","344","5.3","17.3","0.32","0.03"
"12:24:58","38.6","37","93.9","29.95","332","5.3","11.5","0.33","0.03"
"12:29:58","38.6","37","93.9","29.95","332","4.9","12","0.33","0.04"
"12:34:58","38.5","36.8","93.9","29.94","342","6.1","13","0.34","0.04"
"12:39:58","38.3","36.6","93.9","29.94","334","7","16.1","0.35","0.04"
"12:44:57","38.2","36.6","94","29.94","345","4.4","13","0.36","0.04"
"12:49:57","38.3","36.8","94.5","29.93","336","4.8","14","0.36","0.04"
"12:54:57","38.4","37.1","95","29.93","350","4.6","11.5","0.36","0.04"
"12:59:57","38.4","36.9","94.1","29.94","335","3.9","11.5","0.36","0.04"
"13:04:59","38.5","36.9","94","29.94","327","5","12","0.36","0.04"
"13:09:57","38.6","37","94","29.94","341","5.1","14","0.36","0.04"
"13:14:57","38.7","37.1","94","29.94","341","4.5","11.5","0.36","0.04"
"13:19:57","38.8","37.2","94","29.93","330","4.8","11.5","0.36","0.04"
"13:24:57","38.8","37.2","94","29.93","3","4.4","12","0.36","0.04"
"13:29:56","38.9","37.3","94","29.94","353","5","11.5","0.36","0.03"
"13:34:56","38.9","37.3","94","29.94","329","3.1","8.1","0.36","0.03"
"13:39:56","38.9","37.3","94","29.94","342","4.1","13","0.36","0.02"
"13:44:56","38.9","37.2","93.8","29.95","337","4.5","11.5","0.36","0.01"
"13:49:56","38.8","37.1","93.6","29.95","339","5","12","0.36","0.00"
"13:54:59","38.6","36.9","93.2","29.95","334","4.1","11.5","0.36","0.00"
"13:59:59","38.6","36.8","93","29.96","337","5.5","12","0.36","0.00"
"14:04:57","38.5","36.7","93.2","29.96","351","5.1","14","0.36","0.00"
"14:09:59","38.4","36.6","93","29.96","325","6.5","15","0.36","0.00"
"14:14:59","38.3","36.4","92.6","29.96","347","7.9","15","0.36","0.00"
"14:19:58","38.2","36.3","92.7","29.96","343","5.4","12.7","0.36","0.00"
"14:24:58","38.2","36.3","93","29.96","326","5.7","17","0.36","0.00"
"14:29:58","38.1","36.3","93","29.96","302","4.8","12.7","0.36","0.00"
"14:34:58","38.1","36.3","93","29.96","342","4.7","11.5","0.36","0.00"
"14:39:58","38.1","36.2","92.7","29.96","339","6.5","15","0.36","0.00"
"14:44:57","38.1","36.1","92.3","29.96","340","6.1","16.1","0.36","0.00"
"14:49:57","38.1","36","92","29.94","332","6.3","16","0.36","0.00"
"14:54:57","38.1","36","92","29.94","327","6.2","16.1","0.36","0.00"
"14:59:56","38","35.9","92","29.97","332","5","11.5","0.36","0.00"
"15:04:59","38","35.8","91.7","29.97","336","6.3","12","0.36","0.00"
"15:09:57","38","35.6","91","29.97","338","6.4","13","0.36","0.00"
"15:14:56","38","35.6","91","29.97","338","5.4","12","0.36","0.00"
"15:19:56","38","35.7","91.4","29.97","340","5.7","13","0.36","0.00"
"15:24:56","38","35.6","91","29.97","341","5.7","13","0.36","0.00"
"15:29:56","37.9","35.7","91.5","29.98","350","4.9","12","0.36","0.00"
"15:34:59","37.9","35.6","91.4","29.98","342","4.8","17","0.37","0.01"
"15:39:59","37.9","35.6","91.5","29.98","337","6.2","17.3","0.37","0.01"
"15:44:59","37.9","35.6","91.6","29.98","335","6.2","15","0.37","0.01"
"15:49:59","37.8","35.6","91.7","29.97","338","7","14","0.37","0.01"
"15:54:59","37.8","35.4","91","29.97","340","6.9","12","0.37","0.01"
"15:59:58","37.8","35.4","91","29.98","337","5.9","15","0.37","0.01"
"16:04:56","37.8","35.4","91","29.98","334","5.8","12","0.37","0.01"
"16:09:58","37.8","35.3","90.7","29.98","340","6.1","12","0.37","0.01"
"16:14:57","37.9","35.5","91","29.99","334","6.3","13","0.37","0.01"
"16:19:58","37.9","35.2","90","29.99","337","5.5","12","0.37","0.01"
"16:24:58","37.9","35.3","90.3","29.99","331","4.4","12","0.37","0.01"
"16:29:58","37.9","35.3","90.3","30.00","337","4.2","7","0.37","0.01"
"16:34:58","37.9","35.3","90.3","30.00","333","5.3","12","0.37","0.01"
"16:39:58","38","35.3","90","30.00","335","3.3","6.9","0.37","0.00"
"16:44:57","38","35.3","90","30.01","334","3.3","6","0.37","0.00"
"16:49:57","38","35.3","90","30.01","333","3.4","11","0.37","0.00"
"16:54:57","38","35.3","89.8","30.01","329","3.3","11.5","0.37","0.00"
"16:59:56","38","35","89.1","30.01","332","2.7","7","0.37","0.00"
"17:04:58","38","35.2","89.8","30.01","344","2.9","6.9","0.37","0.00"
"17:09:56","38","35.1","89.3","30.01","334","2.1","5","0.37","0.00"
"17:14:57","37.9","34.9","89","30.02","345","1.6","6","0.37","0.00"
"17:19:57","37.9","34.9","89","30.02","339","1.6","5","0.37","0.00"
"17:24:58","37.8","34.8","89","30.02","325","1.7","5","0.37","0.00"
"17:29:58","37.8","35","89.8","30.03","329","1.2","5","0.37","0.00"
"17:34:58","37.7","35","90","30.03","341","2","6","0.37","0.00"
"17:39:59","37.7","34.9","89.5","30.03","330","1.7","4","0.37","0.00"
"17:44:59","37.6","34.9","90","30.04","324","1.7","5","0.37","0.00"
"17:49:59","37.5","34.8","90","30.04","334","2.1","4.6","0.37","0.00"
"17:54:56","37.5","34.8","90","30.04","329","1.7","7","0.37","0.00"
"17:59:56","37.4","34.7","90","30.05","332","2.6","5","0.37","0.00"
"18:04:58","37.4","34.7","90","30.05","333","2","6","0.37","0.00"
"18:09:56","37.4","34.6","89.4","30.05","329","3.7","11.5","0.37","0.00"
"18:14:56","37.4","34.5","89","30.05","3","2.4","7","0.37","0.00"
"18:19:56","37.4","34.5","89","30.05","343","2.2","9","0.37","0.00"
"18:24:56","37.3","34.4","89","30.05","333","2.2","9.2","0.37","0.00"
"18:29:57","37.3","34.3","88.5","30.05","334","2.9","13","0.37","0.00"
"18:34:57","37.3","33.9","87.4","30.05","343","4.3","13","0.37","0.00"
"18:39:57","37.2","33.4","86","30.05","325","4.1","12.7","0.37","0.00"
"18:44:57","37.2","33.3","85.5","30.06","334","5","11.5","0.37","0.00"
"18:49:59","37.2","33.1","85","30.06","338","1.9","6.9","0.37","0.00"
"18:54:59","37.1","32.8","84.3","30.06","338","3.3","10.4","0.37","0.00"
"18:59:59","37","32.4","83.3","30.07","356","4.7","12","0.37","0.00"
"19:04:56","36.9","32","82.2","30.07","336","4","9.2","0.37","0.00"
"19:09:58","36.8","31.7","81.5","30.07","348","5.5","19","0.37","0.00"
"19:14:59","36.7","31.1","80.2","30.08","333","5.3","19.6","0.37","0.00"
"19:19:58","36.6","30.9","79.7","30.08","333","5.7","12","0.37","0.00"
"19:24:59","36.4","30.8","79.9","30.08","323","4.5","13","0.37","0.00"
"19:29:59","36.3","30.7","80","30.08","327","4.4","12.7","0.37","0.00"
"19:34:59","36.2","30.5","79.8","30.07","344","5.4","13","0.37","0.00"
"19:39:59","36.1","30.4","79.7","30.07","330","4.7","13","0.37","0.00"
"19:44:58","36","30.2","79.3","30.08","324","5.5","12","0.37","0.00"
"19:49:58","35.9","30","79","30.08","327","5.6","13","0.37","0.00"
"19:54:58","35.8","29.8","78.7","30.08","335","6","16.1","0.37","0.00"
"19:59:58","35.7","29.8","78.8","30.09","334","4.1","15","0.37","0.00"
"20:04:56","35.6","29.7","79","30.09","352","6","17.3","0.37","0.00"
"20:09:58","35.4","29.5","79","30.09","342","4.3","12","0.37","0.00"
"20:14:58","35.2","29.3","79","30.09","336","4.7","10.4","0.37","0.00"
"20:19:57","35.1","29.1","78.7","30.09","0","4.9","13","0.37","0.00"
"20:24:58","35","29.1","79","30.09","343","5.1","15","0.37","0.00"
"20:29:57","34.9","28.9","78.8","30.09","346","4.8","13","0.37","0.00"
"20:34:57","34.8","28.9","78.8","30.09","324","3.4","8","0.37","0.00"
"20:39:57","34.7","28.9","79","30.09","350","3.3","12","0.37","0.00"
"20:44:57","34.6","28.6","78.5","30.10","338","3.4","11.5","0.37","0.00"
"20:49:57","34.6","28.6","78.5","30.10","328","5.2","13","0.37","0.00"
"20:54:57","34.5","28.4","78.2","30.10","331","4.4","12.7","0.37","0.00"
"20:59:57","34.5","28.5","78.4","30.12","344","2.6","8.1","0.37","0.00"
"21:04:59","34.5","28.3","78.1","30.12","345","3.2","11","0.37","0.00"
"21:09:57","34.4","28.2","78","30.12","338","4.9","10.4","0.37","0.00"
"21:14:58","34.4","27.9","77.1","30.12","325","5.3","13","0.37","0.00"
"21:19:57","34.4","27.9","77","30.12","324","6.7","15","0.37","0.00"
"21:24:57","34.2","27.5","76.3","30.12","336","7.1","17.3","0.37","0.00"
"21:29:57","34","27.2","75.9","30.12","332","6.5","13","0.37","0.00"
"21:34:57","33.9","27.1","75.8","30.11","320","4.6","11.5","0.37","0.00"
"21:39:57","33.8","27","76","30.11","313","4.4","11.5","0.37","0.00"
"21:44:57","33.7","27.1","76.6","30.12","335","5.3","13","0.37","0.00"
"21:49:57","33.6","26.9","76.3","30.12","351","6.4","15","0.37","0.00"
"21:54:57","33.5","26.8","76.2","30.12","336","6.4","13","0.37","0.00"
"21:59:56","33.4","26.6","76","30.13","334","6.8","12","0.37","0.00"
"22:04:59","33.3","26.5","76","30.13","321","6.2","14","0.37","0.00"
"22:09:57","33.1","26.1","75.4","30.13","327","6.3","15","0.37","0.00"
"22:14:57","33","26.1","75.6","30.14","324","4.4","11.5","0.37","0.00"
"22:19:57","32.8","25.9","75.5","30.14","322","6","16.1","0.37","0.00"
"22:24:57","32.7","25.6","75","30.14","318","5.8","16.1","0.37","0.00"
"22:29:57","32.6","25.7","75.3","30.14","317","4.7","13","0.37","0.00"
"22:34:56","32.5","25.6","75.1","30.14","332","6.2","18","0.37","0.00"
"22:39:57","32.5","25.5","75.1","30.14","338","6.7","15","0.37","0.00"
"22:44:56","32.4","25.3","74.8","30.14","337","6.2","12.7","0.37","0.00"
"22:49:57","32.3","25.4","75.4","30.14","293","3.5","11.5","0.37","0.00"
"22:54:57","32.2","25.5","76","30.14","328","4.9","12","0.37","0.00"
"22:59:57","32.1","25.4","75.9","30.14","331","4.3","14","0.37","0.00"
"23:04:59","32.1","25.3","75.7","30.14","322","5.4","13.8","0.37","0.00"
"23:09:57","32","25.2","75.6","30.14","325","4.1","10","0.37","0.00"
"23:14:57","32","25.2","75.8","30.15","315","3.6","10.4","0.37","0.00"
"23:19:57","31.9","25.2","75.9","30.15","314","4.4","10.4","0.37","0.00"
"23:24:57","31.7","24.9","75.5","30.15","317","5","12","0.37","0.00"
"23:29:57","31.7","24.7","75","30.15","333","7.4","15","0.37","0.00"
"23:34:57","31.5","24.5","75","30.14","319","5.5","12","0.37","0.00"
"23:39:57","31.5","24.7","75.8","30.14","323","3.5","7","0.37","0.00"
"23:44:57","31.4","24.6","75.7","30.14","329","5.3","13","0.37","0.00"
"23:49:57","31.3","24.5","75.6","30.14","322","4.3","11.5","0.37","0.00"
"23:54:58","31.2","24.4","75.8","30.14","315","4.7","13","0.37","0.00"
"23:59:58","31.2","24.3","75.5","30.14","324","5","10.4","0.37","0.00"
